Location: Cedar Brake
(32.2526°N, 97.8459°W)
Time: 20:59:04
(UTC+00:00)

Aureole 1 Rocket - Pass Details

Date: 22 April 2026
Orbit: 373 x 1150 km, 73.9° (Epoch: 21 May)

Event Time Altitude Azimuth Distance (km) Brightness Sun altitude
Rises 10:21:02 0° 335° (NNW) 2,906 6.6 -19.1°
Reaches altitude 10° 10:23:07 10° 330° (NNW) 2,106 5.8 -18.7°
Maximum altitude 10:27:45 51° 255° (WSW) 984 3.6 -17.8°
Drops below altitude 10° 10:33:29 10° 182° (S) 2,605 6.0 -16.8°
Sets 10:36:19 0° 177° (S) 3,663 6.8 -16.2°
